Year,Month,Day,Hour,Minute,Value (Times are PST for temperature in C)
2008,04,30,00,00,5.10
2008,04,30,00,01,5.10
2008,04,30,00,02,5.10
2008,04,30,00,03,5.10
2008,04,30,00,04,5.10
2008,04,30,00,05,5.10
2008,04,30,00,06,5.10
2008,04,30,00,07,5.00
2008,04,30,00,08,4.90
2008,04,30,00,09,4.90
2008,04,30,00,10,4.90
2008,04,30,00,11,4.90
2008,04,30,00,12,4.90
2008,04,30,00,13,4.90
2008,04,30,00,14,4.90
2008,04,30,00,15,4.90
2008,04,30,00,16,4.90
2008,04,30,00,17,4.90
2008,04,30,00,18,4.90
2008,04,30,00,19,4.90
2008,04,30,00,20,4.90
2008,04,30,00,21,4.90
2008,04,30,00,22,4.90
2008,04,30,00,23,4.90
2008,04,30,00,24,4.90
2008,04,30,00,25,4.90
2008,04,30,00,26,4.90
2008,04,30,00,27,4.90
2008,04,30,00,28,4.90
2008,04,30,00,29,4.90
2008,04,30,00,30,4.90
2008,04,30,00,31,4.90
2008,04,30,00,32,4.90
2008,04,30,00,33,4.90
2008,04,30,00,34,4.90
2008,04,30,00,35,4.90
2008,04,30,00,36,4.90
2008,04,30,00,37,4.80
2008,04,30,00,38,4.80
2008,04,30,00,39,4.80
2008,04,30,00,40,4.80
2008,04,30,00,41,4.80
2008,04,30,00,42,4.80
2008,04,30,00,43,4.80
2008,04,30,00,44,4.80
2008,04,30,00,45,4.80
2008,04,30,00,46,4.80
2008,04,30,00,47,4.80
2008,04,30,00,48,4.70
2008,04,30,00,49,4.70
2008,04,30,00,50,4.70
2008,04,30,00,51,4.70
2008,04,30,00,52,4.60
2008,04,30,00,53,4.60
2008,04,30,00,54,4.60
2008,04,30,00,55,4.60
2008,04,30,00,56,4.60
2008,04,30,00,57,4.60
2008,04,30,00,58,4.60
2008,04,30,00,59,4.60
2008,04,30,01,00,4.60
2008,04,30,01,01,4.60
2008,04,30,01,02,4.60
2008,04,30,01,03,4.60
2008,04,30,01,04,4.60
2008,04,30,01,05,4.60
2008,04,30,01,06,4.60
2008,04,30,01,07,4.60
2008,04,30,01,08,4.60
2008,04,30,01,09,4.60
2008,04,30,01,10,4.60
2008,04,30,01,11,4.70
2008,04,30,01,12,4.70
2008,04,30,01,13,4.70
2008,04,30,01,14,4.80
2008,04,30,01,15,4.80
2008,04,30,01,16,4.80
2008,04,30,01,17,4.80
2008,04,30,01,18,4.90
2008,04,30,01,19,4.90
2008,04,30,01,20,4.90
2008,04,30,01,21,4.90
2008,04,30,01,22,4.90
2008,04,30,01,23,4.90
2008,04,30,01,24,4.90
2008,04,30,01,25,4.90
2008,04,30,01,26,4.90
2008,04,30,01,27,4.90
2008,04,30,01,28,4.90
2008,04,30,01,29,4.90
2008,04,30,01,30,4.90
2008,04,30,01,31,4.90
2008,04,30,01,32,4.90
2008,04,30,01,33,4.90
2008,04,30,01,34,5.10
2008,04,30,01,35,5.10
2008,04,30,01,36,5.10
2008,04,30,01,37,5.10
2008,04,30,01,38,5.10
2008,04,30,01,39,5.10
2008,04,30,01,40,5.10
2008,04,30,01,41,5.10
2008,04,30,01,42,5.10
2008,04,30,01,43,5.10
2008,04,30,01,44,5.10
2008,04,30,01,45,5.10
2008,04,30,01,46,5.10
2008,04,30,01,47,5.10
2008,04,30,01,48,5.10
2008,04,30,01,49,5.10
2008,04,30,01,50,5.10
2008,04,30,01,51,5.10
2008,04,30,01,52,5.10
2008,04,30,01,53,5.10
2008,04,30,01,54,5.10
2008,04,30,01,55,5.10
2008,04,30,01,56,5.10
2008,04,30,01,57,5.10
2008,04,30,01,58,5.10
2008,04,30,01,59,5.10
2008,04,30,02,00,5.10
2008,04,30,02,01,5.10
2008,04,30,02,02,5.10
2008,04,30,02,03,5.10
2008,04,30,02,04,5.10
2008,04,30,02,05,5.10
2008,04,30,02,06,5.10
2008,04,30,02,07,5.10
2008,04,30,02,08,5.10
2008,04,30,02,09,5.10
2008,04,30,02,10,5.10
2008,04,30,02,11,5.10
2008,04,30,02,12,5.10
2008,04,30,02,13,5.10
2008,04,30,02,14,5.10
2008,04,30,02,15,5.10
2008,04,30,02,16,5.10
2008,04,30,02,17,5.10
2008,04,30,02,18,5.10
2008,04,30,02,19,5.10
2008,04,30,02,20,5.10
2008,04,30,02,21,5.20
2008,04,30,02,22,5.20
2008,04,30,02,23,5.20
2008,04,30,02,24,5.20
2008,04,30,02,25,5.20
2008,04,30,02,26,5.20
2008,04,30,02,27,5.20
2008,04,30,02,28,5.20
2008,04,30,02,29,5.20
2008,04,30,02,30,5.20
2008,04,30,02,31,5.20
2008,04,30,02,32,5.20
2008,04,30,02,33,5.20
2008,04,30,02,34,5.20
2008,04,30,02,35,5.20
2008,04,30,02,36,5.30
2008,04,30,02,37,5.30
2008,04,30,02,38,5.30
2008,04,30,02,39,5.30
2008,04,30,02,40,5.30
2008,04,30,02,41,5.30
2008,04,30,02,42,5.30
2008,04,30,02,43,5.30
2008,04,30,02,44,5.30
2008,04,30,02,45,5.30
2008,04,30,02,46,5.30
2008,04,30,02,47,5.40
2008,04,30,02,48,5.40
2008,04,30,02,49,5.40
2008,04,30,02,50,5.40
2008,04,30,02,51,5.40
2008,04,30,02,52,5.40
2008,04,30,02,53,5.40
2008,04,30,02,54,5.40
2008,04,30,02,55,5.50
2008,04,30,02,56,5.50
2008,04,30,02,57,5.50
2008,04,30,02,58,5.50
2008,04,30,02,59,5.50
2008,04,30,03,00,5.50
2008,04,30,03,01,5.50
2008,04,30,03,02,5.50
2008,04,30,03,03,5.40
2008,04,30,03,04,5.40
2008,04,30,03,05,5.40
2008,04,30,03,06,5.40
2008,04,30,03,07,5.40
2008,04,30,03,08,5.40
2008,04,30,03,09,5.40
2008,04,30,03,10,5.40
2008,04,30,03,11,5.40
2008,04,30,03,12,5.40
2008,04,30,03,13,5.40
2008,04,30,03,14,5.40
2008,04,30,03,15,5.40
2008,04,30,03,16,5.40
2008,04,30,03,17,5.40
2008,04,30,03,18,5.40
2008,04,30,03,19,5.40
2008,04,30,03,20,5.40
2008,04,30,03,21,5.40
2008,04,30,03,22,5.40
2008,04,30,03,23,5.40
2008,04,30,03,24,5.40
2008,04,30,03,25,5.40
2008,04,30,03,26,5.40
2008,04,30,03,27,5.30
2008,04,30,03,28,5.30
2008,04,30,03,29,5.30
2008,04,30,03,30,5.30
2008,04,30,03,31,5.30
2008,04,30,03,32,5.30
2008,04,30,03,33,5.30
2008,04,30,03,34,5.30
2008,04,30,03,35,5.20
2008,04,30,03,36,5.20
2008,04,30,03,37,5.20
2008,04,30,03,38,5.20
2008,04,30,03,39,5.20
2008,04,30,03,40,5.20
2008,04,30,03,41,5.10
2008,04,30,03,42,5.10
2008,04,30,03,43,5.10
2008,04,30,03,44,5.10
2008,04,30,03,45,5.10
2008,04,30,03,46,5.10
2008,04,30,03,47,5.10
2008,04,30,03,48,5.10
2008,04,30,03,49,5.10
2008,04,30,03,50,5.10
2008,04,30,03,51,5.10
2008,04,30,03,52,5.10
2008,04,30,03,53,5.10
2008,04,30,03,54,5.10
2008,04,30,03,55,5.10
2008,04,30,03,56,5.00
2008,04,30,03,57,4.90
2008,04,30,03,58,4.90
2008,04,30,03,59,4.90
2008,04,30,04,00,4.90
2008,04,30,04,01,4.90
2008,04,30,04,02,4.90
2008,04,30,04,03,4.90
2008,04,30,04,04,4.90
2008,04,30,04,05,4.90
2008,04,30,04,06,4.90
2008,04,30,04,07,4.90
2008,04,30,04,08,4.90
2008,04,30,04,09,4.90
2008,04,30,04,10,4.90
2008,04,30,04,11,4.90
2008,04,30,04,12,4.90
2008,04,30,04,13,4.90
2008,04,30,04,14,4.90
2008,04,30,04,15,4.90
2008,04,30,04,16,4.90
2008,04,30,04,17,4.90
2008,04,30,04,18,4.90
2008,04,30,04,19,4.90
2008,04,30,04,20,4.90
2008,04,30,04,21,4.90
2008,04,30,04,22,4.90
2008,04,30,04,23,4.90
2008,04,30,04,24,4.90
2008,04,30,04,25,4.90
2008,04,30,04,26,4.90
2008,04,30,04,27,4.90
2008,04,30,04,28,4.90
2008,04,30,04,29,4.90
2008,04,30,04,30,4.90
2008,04,30,04,31,4.90
2008,04,30,04,32,4.90
2008,04,30,04,33,4.90
2008,04,30,04,34,4.90
2008,04,30,04,35,4.90
2008,04,30,04,36,4.90
2008,04,30,04,37,4.90
2008,04,30,04,38,4.90
2008,04,30,04,39,4.90
2008,04,30,04,40,4.90
2008,04,30,04,41,4.90
2008,04,30,04,42,4.80
2008,04,30,04,43,4.80
2008,04,30,04,44,4.80
2008,04,30,04,45,4.80
2008,04,30,04,46,4.80
2008,04,30,04,47,4.80
2008,04,30,04,48,4.80
2008,04,30,04,49,4.80
2008,04,30,04,50,4.80
2008,04,30,04,51,4.70
2008,04,30,04,52,4.70
2008,04,30,04,53,4.70
2008,04,30,04,54,4.70
2008,04,30,04,55,4.60
2008,04,30,04,56,4.60
2008,04,30,04,57,4.60
2008,04,30,04,58,4.60
2008,04,30,04,59,4.60
2008,04,30,05,00,4.60
2008,04,30,05,01,4.60
2008,04,30,05,02,4.60
2008,04,30,05,03,4.60
2008,04,30,05,04,4.60
2008,04,30,05,05,4.50
2008,04,30,05,06,4.50
2008,04,30,05,07,4.50
2008,04,30,05,08,4.50
2008,04,30,05,09,4.50
2008,04,30,05,10,4.50
2008,04,30,05,11,4.50
2008,04,30,05,12,4.50
2008,04,30,05,13,4.50
2008,04,30,05,14,4.50
2008,04,30,05,15,4.50
2008,04,30,05,16,4.50
2008,04,30,05,17,4.50
2008,04,30,05,18,4.40
2008,04,30,05,19,4.30
2008,04,30,05,20,4.20
2008,04,30,05,21,4.00
2008,04,30,05,22,3.80
2008,04,30,05,23,3.60
2008,04,30,05,24,3.50
2008,04,30,05,25,3.30
2008,04,30,05,26,3.30
2008,04,30,05,27,3.10
2008,04,30,05,28,3.00
2008,04,30,05,29,2.80
2008,04,30,05,30,2.70
2008,04,30,05,31,2.60
2008,04,30,05,32,2.60
2008,04,30,05,33,2.50
2008,04,30,05,34,2.50
2008,04,30,05,35,2.40
2008,04,30,05,36,2.40
2008,04,30,05,37,2.30
2008,04,30,05,38,2.20
2008,04,30,05,39,2.20
2008,04,30,05,40,2.20
2008,04,30,05,41,2.10
2008,04,30,05,42,2.10
2008,04,30,05,43,2.00
2008,04,30,05,44,2.00
2008,04,30,05,45,2.00
2008,04,30,05,46,1.90
2008,04,30,05,47,1.90
2008,04,30,05,48,1.90
2008,04,30,05,49,1.80
2008,04,30,05,50,1.80
2008,04,30,05,51,1.80
2008,04,30,05,52,1.80
2008,04,30,05,53,1.80
2008,04,30,05,54,1.80
2008,04,30,05,55,1.80
2008,04,30,05,56,1.80
2008,04,30,05,57,1.80
2008,04,30,05,58,1.80
2008,04,30,05,59,1.80
2008,04,30,06,00,1.80
2008,04,30,06,01,1.80
2008,04,30,06,02,1.80
2008,04,30,06,03,1.80
2008,04,30,06,04,1.80
2008,04,30,06,05,1.80
2008,04,30,06,06,1.90
2008,04,30,06,07,1.90
2008,04,30,06,08,1.90
2008,04,30,06,09,1.90
2008,04,30,06,10,1.90
2008,04,30,06,11,1.90
2008,04,30,06,12,1.90
2008,04,30,06,13,1.90
2008,04,30,06,14,1.90
2008,04,30,06,15,1.90
2008,04,30,06,16,1.80
2008,04,30,06,17,1.80
2008,04,30,06,18,1.80
2008,04,30,06,19,1.80
2008,04,30,06,20,1.80
2008,04,30,06,21,1.80
2008,04,30,06,22,1.80
2008,04,30,06,23,1.80
2008,04,30,06,24,1.80
2008,04,30,06,25,1.70
2008,04,30,06,26,1.70
2008,04,30,06,27,1.70
2008,04,30,06,28,1.70
2008,04,30,06,29,1.70
2008,04,30,06,30,1.70
2008,04,30,06,31,1.70
2008,04,30,06,32,1.60
2008,04,30,06,33,1.60
2008,04,30,06,34,1.60
2008,04,30,06,35,1.60
2008,04,30,06,36,1.50
2008,04,30,06,37,1.50
2008,04,30,06,38,1.40
2008,04,30,06,39,1.40
2008,04,30,06,40,1.40
2008,04,30,06,41,1.30
2008,04,30,06,42,1.30
2008,04,30,06,43,1.30
2008,04,30,06,44,1.30
2008,04,30,06,45,1.40
2008,04,30,06,46,1.50
2008,04,30,06,47,1.50
2008,04,30,06,48,1.60
2008,04,30,06,49,1.60
2008,04,30,06,50,1.70
2008,04,30,06,51,1.70
2008,04,30,06,52,1.80
2008,04,30,06,53,1.80
2008,04,30,06,54,1.80
2008,04,30,06,55,1.90
2008,04,30,06,56,1.90
2008,04,30,06,57,2.00
2008,04,30,06,58,2.00
2008,04,30,06,59,2.00
2008,04,30,07,00,2.10
2008,04,30,07,01,2.10
2008,04,30,07,02,2.10
2008,04,30,07,03,2.10
2008,04,30,07,04,2.20
2008,04,30,07,05,2.20
2008,04,30,07,06,2.20
2008,04,30,07,07,2.20
2008,04,30,07,08,2.20
2008,04,30,07,09,2.30
2008,04,30,07,10,2.30
2008,04,30,07,11,2.30
2008,04,30,07,12,2.40
2008,04,30,07,13,2.50
2008,04,30,07,14,2.50
2008,04,30,07,15,2.60
2008,04,30,07,16,2.70
2008,04,30,07,17,2.70
2008,04,30,07,18,2.80
2008,04,30,07,19,2.80
2008,04,30,07,20,2.90
2008,04,30,07,21,3.00
2008,04,30,07,22,3.10
2008,04,30,07,23,3.10
2008,04,30,07,24,3.10
2008,04,30,07,25,3.20
2008,04,30,07,26,3.30
2008,04,30,07,27,3.40
2008,04,30,07,28,3.50
2008,04,30,07,29,3.70
2008,04,30,07,30,3.90
2008,04,30,07,31,4.00
2008,04,30,07,32,4.20
2008,04,30,07,33,4.30
2008,04,30,07,34,4.50
2008,04,30,07,35,4.60
2008,04,30,07,36,4.70
2008,04,30,07,37,4.90
2008,04,30,07,38,5.00
2008,04,30,07,39,5.10
2008,04,30,07,40,5.10
2008,04,30,07,41,5.20
2008,04,30,07,42,5.20
2008,04,30,07,43,5.30
2008,04,30,07,44,5.30
2008,04,30,07,45,5.30
2008,04,30,07,46,5.40
2008,04,30,07,47,5.50
2008,04,30,07,48,5.60
2008,04,30,07,49,5.70
2008,04,30,07,50,5.70
2008,04,30,07,51,5.70
2008,04,30,07,52,5.80
2008,04,30,07,53,5.90
2008,04,30,07,54,6.00
2008,04,30,07,55,6.00
2008,04,30,07,56,6.00
2008,04,30,07,57,6.10
2008,04,30,07,58,6.20
2008,04,30,07,59,6.20
2008,04,30,08,00,6.30
2008,04,30,08,01,6.40
2008,04,30,08,02,6.60
2008,04,30,08,03,6.70
2008,04,30,08,04,6.80
2008,04,30,08,05,6.80
2008,04,30,08,06,6.90
2008,04,30,08,07,7.00
2008,04,30,08,08,7.00
2008,04,30,08,09,7.00
2008,04,30,08,10,7.00
2008,04,30,08,11,7.10
2008,04,30,08,12,7.20
2008,04,30,08,13,7.30
2008,04,30,08,14,7.30
2008,04,30,08,15,7.40
2008,04,30,08,16,7.50
2008,04,30,08,17,7.50
2008,04,30,08,18,7.60
2008,04,30,08,19,7.60
2008,04,30,08,20,7.60
2008,04,30,08,21,7.70
2008,04,30,08,22,7.70
2008,04,30,08,23,7.80
2008,04,30,08,24,7.80
2008,04,30,08,25,7.90
2008,04,30,08,26,7.90
2008,04,30,08,27,7.90
2008,04,30,08,28,8.00
2008,04,30,08,29,8.00
2008,04,30,08,30,8.00
2008,04,30,08,31,8.00
2008,04,30,08,32,8.00
2008,04,30,08,33,8.00
2008,04,30,08,34,8.10
2008,04,30,08,35,8.20
2008,04,30,08,36,8.20
2008,04,30,08,37,8.20
2008,04,30,08,38,8.20
2008,04,30,08,39,8.20
2008,04,30,08,40,8.10
2008,04,30,08,41,8.10
2008,04,30,08,42,8.10
2008,04,30,08,43,8.00
2008,04,30,08,44,8.00
2008,04,30,08,45,8.00
2008,04,30,08,46,8.00
2008,04,30,08,47,8.00
2008,04,30,08,48,8.00
2008,04,30,08,49,8.00
2008,04,30,08,50,8.00
2008,04,30,08,51,8.00
2008,04,30,08,52,8.10
2008,04,30,08,53,8.20
2008,04,30,08,54,8.20
2008,04,30,08,55,8.30
2008,04,30,08,56,8.40
2008,04,30,08,57,8.50
2008,04,30,08,58,8.60
2008,04,30,08,59,8.70
2008,04,30,09,00,8.70
2008,04,30,09,01,8.70
2008,04,30,09,02,8.70
2008,04,30,09,03,8.70
2008,04,30,09,04,8.70
2008,04,30,09,05,8.70
2008,04,30,09,06,8.80
2008,04,30,09,07,8.80
2008,04,30,09,08,8.80
2008,04,30,09,09,8.90
2008,04,30,09,10,9.00
2008,04,30,09,11,9.10
2008,04,30,09,12,9.20
2008,04,30,09,13,9.30
2008,04,30,09,14,9.40
2008,04,30,09,15,9.50
2008,04,30,09,16,9.50
2008,04,30,09,17,9.50
2008,04,30,09,18,9.50
2008,04,30,09,19,9.50
2008,04,30,09,20,9.50
2008,04,30,09,21,9.60
2008,04,30,09,22,9.50
2008,04,30,09,23,9.50
2008,04,30,09,24,9.40
2008,04,30,09,25,9.20
2008,04,30,09,26,9.10
2008,04,30,09,27,9.10
2008,04,30,09,28,9.20
2008,04,30,09,29,9.20
2008,04,30,09,30,9.30
2008,04,30,09,31,9.30
2008,04,30,09,32,9.30
2008,04,30,09,33,9.30
2008,04,30,09,34,9.30
2008,04,30,09,35,9.30
2008,04,30,09,36,9.30
2008,04,30,09,37,9.30
2008,04,30,09,38,9.40
2008,04,30,09,39,9.40
2008,04,30,09,40,9.40
2008,04,30,09,41,9.30
2008,04,30,09,42,9.30
2008,04,30,09,43,9.30
2008,04,30,09,44,9.30
2008,04,30,09,45,9.30
2008,04,30,09,46,9.20
2008,04,30,09,47,9.20
2008,04,30,09,48,9.20
2008,04,30,09,49,9.10
2008,04,30,09,50,9.10
2008,04,30,09,51,9.10
2008,04,30,09,52,9.10
2008,04,30,09,53,9.20
2008,04,30,09,54,9.20
2008,04,30,09,55,9.30
2008,04,30,09,56,9.40
2008,04,30,09,57,9.50
2008,04,30,09,58,9.60
2008,04,30,09,59,9.60
2008,04,30,10,00,9.70
2008,04,30,10,01,9.60
2008,04,30,10,02,9.70
2008,04,30,10,03,9.70
2008,04,30,10,04,9.60
2008,04,30,10,05,9.50
2008,04,30,10,06,9.50
2008,04,30,10,07,9.60
2008,04,30,10,08,9.60
2008,04,30,10,09,9.70
2008,04,30,10,10,9.70
2008,04,30,10,11,9.70
2008,04,30,10,12,9.70
2008,04,30,10,13,9.70
2008,04,30,10,14,9.60
2008,04,30,10,15,9.60
2008,04,30,10,16,9.60
2008,04,30,10,17,9.60
2008,04,30,10,18,9.60
2008,04,30,10,19,9.50
2008,04,30,10,20,9.50
2008,04,30,10,21,9.60
2008,04,30,10,22,9.70
2008,04,30,10,23,9.90
2008,04,30,10,24,10.00
2008,04,30,10,25,10.10
2008,04,30,10,26,10.20
2008,04,30,10,27,10.30
2008,04,30,10,28,10.40
2008,04,30,10,29,10.40
2008,04,30,10,30,10.40
2008,04,30,10,31,10.40
2008,04,30,10,32,10.40
2008,04,30,10,33,10.40
2008,04,30,10,34,10.50
2008,04,30,10,35,10.60
2008,04,30,10,36,10.70
2008,04,30,10,37,10.80
2008,04,30,10,38,10.80
2008,04,30,10,39,10.80
2008,04,30,10,40,10.80
2008,04,30,10,41,10.90
2008,04,30,10,42,11.00
2008,04,30,10,43,11.10
2008,04,30,10,44,11.10
2008,04,30,10,45,11.20
2008,04,30,10,46,11.20
2008,04,30,10,47,11.30
2008,04,30,10,48,11.30
2008,04,30,10,49,11.40
2008,04,30,10,50,11.40
2008,04,30,10,51,11.30
2008,04,30,10,52,11.30
2008,04,30,10,53,11.30
2008,04,30,10,54,11.40
2008,04,30,10,55,11.30
2008,04,30,10,56,11.30
2008,04,30,10,57,11.30
2008,04,30,10,58,11.20
2008,04,30,10,59,11.20
2008,04,30,11,00,11.30
2008,04,30,11,01,11.40
2008,04,30,11,02,11.40
2008,04,30,11,03,11.50
2008,04,30,11,04,11.60
2008,04,30,11,05,11.60
2008,04,30,11,06,11.60
2008,04,30,11,07,11.60
2008,04,30,11,08,11.60
2008,04,30,11,09,11.60
2008,04,30,11,10,11.60
2008,04,30,11,11,11.60
2008,04,30,11,12,11.60
2008,04,30,11,13,11.60
2008,04,30,11,14,11.50
2008,04,30,11,15,11.50
2008,04,30,11,16,11.60
2008,04,30,11,17,11.70
2008,04,30,11,18,11.70
2008,04,30,11,19,11.80
2008,04,30,11,20,11.80
2008,04,30,11,21,11.80
2008,04,30,11,22,11.80
2008,04,30,11,23,11.80
2008,04,30,11,24,11.80
2008,04,30,11,25,11.90
2008,04,30,11,26,11.90
2008,04,30,11,27,12.00
2008,04,30,11,28,12.00
2008,04,30,11,29,12.00
2008,04,30,11,30,11.90
2008,04,30,11,31,11.90
2008,04,30,11,32,11.80
2008,04,30,11,33,11.80
2008,04,30,11,34,11.80
2008,04,30,11,35,11.90
2008,04,30,11,36,11.90
2008,04,30,11,37,11.90
2008,04,30,11,38,11.90
2008,04,30,11,39,11.90
2008,04,30,11,40,11.90
2008,04,30,11,41,12.00
2008,04,30,11,42,12.00
2008,04,30,11,43,12.10
2008,04,30,11,44,12.10
2008,04,30,11,45,12.10
2008,04,30,11,46,12.00
2008,04,30,11,47,12.00
2008,04,30,11,48,11.90
2008,04,30,11,49,11.80
2008,04,30,11,50,11.80
2008,04,30,11,51,11.80
2008,04,30,11,52,11.60
2008,04,30,11,53,11.50
2008,04,30,11,54,11.50
2008,04,30,11,55,11.60
2008,04,30,11,56,11.60
2008,04,30,11,57,11.70
2008,04,30,11,58,11.70
2008,04,30,11,59,11.80
2008,04,30,12,00,11.90
2008,04,30,12,01,12.00
2008,04,30,12,02,12.20
2008,04,30,12,03,12.20
2008,04,30,12,04,12.30
2008,04,30,12,05,12.40
2008,04,30,12,06,12.40
2008,04,30,12,07,12.40
2008,04,30,12,08,12.50
2008,04,30,12,09,12.50
2008,04,30,12,10,12.50
2008,04,30,12,11,12.60
2008,04,30,12,12,12.70
2008,04,30,12,13,12.80
2008,04,30,12,14,12.80
2008,04,30,12,15,12.80
2008,04,30,12,16,12.80
2008,04,30,12,17,12.80
2008,04,30,12,18,12.80
2008,04,30,12,19,12.80
2008,04,30,12,20,12.80
2008,04,30,12,21,12.80
2008,04,30,12,22,12.80
2008,04,30,12,23,12.80
2008,04,30,12,24,12.80
2008,04,30,12,25,12.80
2008,04,30,12,26,13.00
2008,04,30,12,27,13.00
2008,04,30,12,28,13.20
2008,04,30,12,29,13.30
2008,04,30,12,30,13.30
2008,04,30,12,31,13.30
2008,04,30,12,32,13.20
2008,04,30,12,33,13.10
2008,04,30,12,34,13.10
2008,04,30,12,35,13.10
2008,04,30,12,36,13.10
2008,04,30,12,37,13.10
2008,04,30,12,38,13.20
2008,04,30,12,39,13.20
2008,04,30,12,40,13.10
2008,04,30,12,41,13.10
2008,04,30,12,42,13.00
2008,04,30,12,43,12.80
2008,04,30,12,44,12.80
2008,04,30,12,45,12.80
2008,04,30,12,46,12.80
2008,04,30,12,47,12.80
2008,04,30,12,48,12.80
2008,04,30,12,49,12.70
2008,04,30,12,50,12.70
2008,04,30,12,51,12.80
2008,04,30,12,52,12.70
2008,04,30,12,53,12.80
2008,04,30,12,54,12.70
2008,04,30,12,55,12.70
2008,04,30,12,56,12.70
2008,04,30,12,57,12.80
2008,04,30,12,58,12.80
2008,04,30,12,59,12.80
2008,04,30,13,00,12.80
2008,04,30,13,01,12.70
2008,04,30,13,02,12.70
2008,04,30,13,03,12.70
2008,04,30,13,04,12.60
2008,04,30,13,05,12.70
2008,04,30,13,06,12.70
2008,04,30,13,07,12.80
2008,04,30,13,08,12.90
2008,04,30,13,09,12.90
2008,04,30,13,10,13.00
2008,04,30,13,11,13.10
2008,04,30,13,12,13.10
2008,04,30,13,13,13.00
2008,04,30,13,14,12.90
2008,04,30,13,15,13.00
2008,04,30,13,16,12.90
2008,04,30,13,17,12.90
2008,04,30,13,18,12.90
2008,04,30,13,19,12.90
2008,04,30,13,20,13.00
2008,04,30,13,21,12.90
2008,04,30,13,22,12.80
2008,04,30,13,23,12.70
2008,04,30,13,24,12.70
2008,04,30,13,25,12.80
2008,04,30,13,26,12.80
2008,04,30,13,27,12.80
2008,04,30,13,28,12.80
2008,04,30,13,29,12.90
2008,04,30,13,30,13.00
2008,04,30,13,31,12.90
2008,04,30,13,32,12.80
2008,04,30,13,33,12.80
2008,04,30,13,34,12.70
2008,04,30,13,35,12.70
2008,04,30,13,36,12.70
2008,04,30,13,37,12.80
2008,04,30,13,38,12.90
2008,04,30,13,39,13.00
2008,04,30,13,40,13.10
2008,04,30,13,41,13.10
2008,04,30,13,42,13.20
2008,04,30,13,43,13.20
2008,04,30,13,44,13.20
2008,04,30,13,45,13.20
2008,04,30,13,46,13.10
2008,04,30,13,47,13.00
2008,04,30,13,48,13.10
2008,04,30,13,49,13.10
2008,04,30,13,50,13.10
2008,04,30,13,51,13.20
2008,04,30,13,52,13.20
2008,04,30,13,53,13.20
2008,04,30,13,54,13.20
2008,04,30,13,55,13.20
2008,04,30,13,56,13.30
2008,04,30,13,57,13.30
2008,04,30,13,58,13.30
2008,04,30,13,59,13.40
2008,04,30,14,00,13.50
2008,04,30,14,01,13.60
2008,04,30,14,02,13.60
2008,04,30,14,03,13.50
2008,04,30,14,04,13.60
2008,04,30,14,05,13.60
2008,04,30,14,06,13.60
2008,04,30,14,07,13.50
2008,04,30,14,08,13.30
2008,04,30,14,09,13.30
2008,04,30,14,10,13.20
2008,04,30,14,11,13.20
2008,04,30,14,12,13.20
2008,04,30,14,13,13.20
2008,04,30,14,14,13.30
2008,04,30,14,15,13.30
2008,04,30,14,16,13.30
2008,04,30,14,17,13.50
2008,04,30,14,18,13.60
2008,04,30,14,19,13.60
2008,04,30,14,20,13.60
2008,04,30,14,21,13.60
2008,04,30,14,22,13.60
2008,04,30,14,23,13.70
2008,04,30,14,24,13.80
2008,04,30,14,25,13.80
2008,04,30,14,26,13.70
2008,04,30,14,27,13.60
2008,04,30,14,28,13.50
2008,04,30,14,29,13.50
2008,04,30,14,30,13.40
2008,04,30,14,31,13.50
2008,04,30,14,32,13.60
2008,04,30,14,33,13.70
2008,04,30,14,34,13.70
2008,04,30,14,35,13.80
2008,04,30,14,36,13.80
2008,04,30,14,37,13.80
2008,04,30,14,38,14.00
2008,04,30,14,39,14.00
2008,04,30,14,40,13.80
2008,04,30,14,41,13.90
2008,04,30,14,42,13.90
2008,04,30,14,43,14.00
2008,04,30,14,44,14.00
2008,04,30,14,45,13.90
2008,04,30,14,46,13.80
2008,04,30,14,47,13.80
2008,04,30,14,48,13.90
2008,04,30,14,49,14.00
2008,04,30,14,50,14.00
2008,04,30,14,51,14.10
2008,04,30,14,52,14.20
2008,04,30,14,53,14.20
2008,04,30,14,54,14.20
2008,04,30,14,55,14.20
2008,04,30,14,56,14.20
2008,04,30,14,57,14.20
2008,04,30,14,58,14.10
2008,04,30,14,59,14.10
2008,04,30,15,00,14.10
2008,04,30,15,01,14.00
2008,04,30,15,02,14.00
2008,04,30,15,03,14.00
2008,04,30,15,04,14.00
2008,04,30,15,05,14.00
2008,04,30,15,06,14.00
2008,04,30,15,07,14.00
2008,04,30,15,08,14.00
2008,04,30,15,09,14.00
2008,04,30,15,10,13.90
2008,04,30,15,11,13.90
2008,04,30,15,12,13.90
2008,04,30,15,13,14.00
2008,04,30,15,14,14.00
2008,04,30,15,15,13.90
2008,04,30,15,16,13.80
2008,04,30,15,17,13.90
2008,04,30,15,18,13.80
2008,04,30,15,19,13.80
2008,04,30,15,20,13.80
2008,04,30,15,21,13.90
2008,04,30,15,22,13.90
2008,04,30,15,23,13.90
2008,04,30,15,24,14.00
2008,04,30,15,25,14.10
2008,04,30,15,26,14.10
2008,04,30,15,27,14.20
2008,04,30,15,28,14.20
2008,04,30,15,29,14.30
2008,04,30,15,30,14.30
2008,04,30,15,31,14.30
2008,04,30,15,32,14.20
2008,04,30,15,33,14.20
2008,04,30,15,34,14.10
2008,04,30,15,35,14.00
2008,04,30,15,36,13.90
2008,04,30,15,37,13.80
2008,04,30,15,38,13.70
2008,04,30,15,39,13.70
2008,04,30,15,40,13.70
2008,04,30,15,41,13.80
2008,04,30,15,42,13.90
2008,04,30,15,43,14.00
2008,04,30,15,44,14.10
2008,04,30,15,45,14.10
2008,04,30,15,46,14.20
2008,04,30,15,47,14.20
2008,04,30,15,48,14.20
2008,04,30,15,49,14.30
2008,04,30,15,50,14.30
2008,04,30,15,51,14.20
2008,04,30,15,52,14.20
2008,04,30,15,53,14.20
2008,04,30,15,54,14.20
2008,04,30,15,55,14.10
2008,04,30,15,56,14.10
2008,04,30,15,57,14.10
2008,04,30,15,58,14.10
2008,04,30,15,59,14.10
2008,04,30,16,00,13.90
2008,04,30,16,01,13.90
2008,04,30,16,02,13.80
2008,04,30,16,03,13.70
2008,04,30,16,04,13.40
2008,04,30,16,05,13.20
2008,04,30,16,06,13.00
2008,04,30,16,07,12.90
2008,04,30,16,08,12.80
2008,04,30,16,09,12.80
2008,04,30,16,10,12.80
2008,04,30,16,11,12.90
2008,04,30,16,12,13.10
2008,04,30,16,13,13.20
2008,04,30,16,14,13.30
2008,04,30,16,15,13.40
2008,04,30,16,16,13.60
2008,04,30,16,17,13.60
2008,04,30,16,18,13.60
2008,04,30,16,19,13.60
2008,04,30,16,20,13.50
2008,04,30,16,21,13.50
2008,04,30,16,22,13.40
2008,04,30,16,23,13.30
2008,04,30,16,24,13.30
2008,04,30,16,25,13.30
2008,04,30,16,26,13.20
2008,04,30,16,27,13.00
2008,04,30,16,28,12.90
2008,04,30,16,29,12.80
2008,04,30,16,30,12.70
2008,04,30,16,31,12.60
2008,04,30,16,32,12.50
2008,04,30,16,33,12.50
2008,04,30,16,34,12.40
2008,04,30,16,35,12.30
2008,04,30,16,36,12.40
2008,04,30,16,37,12.50
2008,04,30,16,38,12.60
2008,04,30,16,39,12.70
2008,04,30,16,40,12.80
2008,04,30,16,41,12.90
2008,04,30,16,42,12.80
2008,04,30,16,43,12.80
2008,04,30,16,44,12.80
2008,04,30,16,45,12.70
2008,04,30,16,46,12.70
2008,04,30,16,47,12.70
2008,04,30,16,48,12.80
2008,04,30,16,49,12.80
2008,04,30,16,50,12.90
2008,04,30,16,51,13.00
2008,04,30,16,52,13.10
2008,04,30,16,53,13.10
2008,04,30,16,54,13.20
2008,04,30,16,55,13.40
2008,04,30,16,56,13.50
2008,04,30,16,57,13.50
2008,04,30,16,58,13.60
2008,04,30,16,59,13.70
2008,04,30,17,00,13.60
2008,04,30,17,01,13.50
2008,04,30,17,02,13.30
2008,04,30,17,03,13.10
2008,04,30,17,04,12.90
2008,04,30,17,05,12.80
2008,04,30,17,06,12.70
2008,04,30,17,07,12.70
2008,04,30,17,08,12.70
2008,04,30,17,09,12.80
2008,04,30,17,10,12.80
2008,04,30,17,11,12.80
2008,04,30,17,12,12.90
2008,04,30,17,13,12.90
2008,04,30,17,14,12.90
2008,04,30,17,15,12.90
2008,04,30,17,16,12.90
2008,04,30,17,17,13.00
2008,04,30,17,18,13.10
2008,04,30,17,19,13.10
2008,04,30,17,20,13.10
2008,04,30,17,21,13.10
2008,04,30,17,22,13.10
2008,04,30,17,23,12.90
2008,04,30,17,24,12.90
2008,04,30,17,25,12.80
2008,04,30,17,26,12.80
2008,04,30,17,27,12.80
2008,04,30,17,28,12.80
2008,04,30,17,29,12.80
2008,04,30,17,30,12.90
2008,04,30,17,31,12.90
2008,04,30,17,32,13.00
2008,04,30,17,33,13.00
2008,04,30,17,34,13.10
2008,04,30,17,35,13.10
2008,04,30,17,36,13.20
2008,04,30,17,37,13.20
2008,04,30,17,38,13.20
2008,04,30,17,39,13.20
2008,04,30,17,40,13.10
2008,04,30,17,41,12.90
2008,04,30,17,42,12.70
2008,04,30,17,43,12.60
2008,04,30,17,44,12.70
2008,04,30,17,45,12.70
2008,04,30,17,46,12.70